Home > Weather > Yuzhno-Sakhalinsk > Past weeks

Flag for Russia Past Weather in Yuzhno-Sakhalinsk, Russia — Yesterday and Last 2 Weeks

Now
70 °F

Partly sunny.


Feels Like: 70 °F
Forecast: 64 / 81 °F
Wind: 8 mph from South

Location: Yuzhno Airport-Sakhalinsk

Current Time: Jul 31, 2016 at 12:52:48 PM

Latest Report: Jul 31, 2016 at 12:00 PM


Visibility: N/A

Pressure: 29.86 "Hg

Humidity: 94%

Dew Point: 68 °F

Location of Yuzhno-SakhalinskLocation

Past Weather in Yuzhno-Sakhalinsk — Graph

°F

Yuzhno-Sakhalinsk Temperature Yesterday

Maximum temperature yesterday: 79 °F (at 3:30 PM)
Minimum temperature yesterday: 64 °F (at 12:00 AM)
Average temperature yesterday: 71 °F

High & Low Weather Summary for the Past Weeks

 TemperatureHumidityPressure
High79 °F (Jul 30, 3:30 PM)100% (Jul 17, 2:00 AM)30.07 "Hg (Jul 17, 2:00 AM)
Low48 °F (Jul 19, 5:00 AM)57% (Jul 18, 1:00 PM)29.71 "Hg (Jul 28, 12:00 PM)
Average64 °F89%29.91 "Hg
* Reported Jul 16 11:00 AM — Jul 31 11:30 AM, Yuzhno-Sakhalinsk, Weather by CustomWeather, © 2016

Note: Actual official high and low records may vary slightly from our data, if they occured in-between our weather recording intervals... More about our weather records

Advertising

Yuzhno-Sakhalinsk Weather History for the Previous 24 Hours

Scroll right to see more
 ConditionsComfort  
Time TempWeatherWind HumidityBarometerVisibility
11:30 AM
Sun, Jul 31
72 °FPartly sunny.6 mph94%29.86 "HgN/A
11:00 AM70 °FPartly sunny.6 mph100%29.86 "HgN/A
10:30 AM68 °FDrizzle. Partly sunny.6 mph100%29.86 "Hg6 mi
10:00 AM68 °FDrizzle. Fog.6 mph100%29.86 "Hg3 mi
9:30 AM68 °FDrizzle. Fog.8 mph100%29.86 "Hg2 mi
9:00 AM66 °FDrizzle. Fog.6 mph100%29.86 "Hg2 mi
8:30 AM68 °FFog.6 mph100%29.86 "Hg3 mi
8:00 AM68 °FPartly sunny.6 mph100%29.86 "Hg5 mi
7:30 AM68 °FPartly sunny.6 mph100%29.86 "Hg4 mi
7:00 AM68 °FFog.6 mph100%29.86 "Hg2 mi
6:30 AM66 °FFog.3 mph100%29.83 "Hg1 mi
6:00 AM66 °FRain. Overcast.3 mph100%29.83 "Hg1 mi
5:00 AM66 °FMild.3 mph100%29.83 "Hg0 mi
4:00 AM66 °FRain. Overcast.3 mph100%29.83 "Hg0 mi
3:00 AM66 °FMild.3 mph100%29.83 "Hg0 mi
2:00 AM66 °FMild.3 mph100%29.83 "Hg0 mi
1:00 AM68 °FMild.3 mph100%29.83 "Hg0 mi
12:00 AM68 °FMild.6 mph100%29.83 "Hg0 mi
11:30 PM
Sat, Jul 30
66 °FRain. Overcast.6 mph100%29.83 "Hg1 mi
11:00 PM68 °FRain. Overcast.3 mph100%29.83 "Hg1 mi
10:30 PM68 °FFog.8 mph100%29.86 "Hg2 mi
10:00 PM68 °FFog.6 mph100%29.83 "Hg2 mi
9:30 PM70 °FDrizzle. Fog.8 mph100%29.83 "Hg1 mi
9:00 PM70 °FDrizzle. Low clouds.8 mph100%29.83 "Hg4 mi
8:30 PM72 °FPartly sunny.8 mph94%29.83 "HgN/A
8:00 PM72 °FPartly sunny.8 mph100%29.83 "HgN/A
7:30 PM72 °FPartly sunny.10 mph100%29.83 "HgN/A
7:00 PM72 °FPartly sunny.8 mph100%29.80 "HgN/A
6:30 PM73 °FPartly sunny.8 mph94%29.80 "HgN/A
6:00 PM73 °FPartly sunny.17 mph94%29.80 "HgN/A
5:30 PM77 °FScattered clouds.17 mph83%29.77 "HgN/A
5:00 PM77 °FScattered clouds.15 mph83%29.77 "HgN/A
4:30 PM79 °FScattered clouds.15 mph79%29.77 "HgN/A
4:00 PM79 °FScattered clouds.17 mph79%29.77 "HgN/A
3:30 PM79 °FScattered clouds.15 mph84%29.80 "HgN/A
3:00 PM77 °FScattered clouds.15 mph83%29.80 "HgN/A
2:30 PM75 °FScattered clouds.10 mph89%29.80 "HgN/A
2:00 PM77 °FScattered clouds.10 mph89%29.80 "HgN/A
1:30 PM77 °FPartly sunny.13 mph89%29.80 "HgN/A
1:00 PM77 °FPartly sunny.6 mph83%29.80 "HgN/A
12:30 PM75 °FPartly sunny.6 mph89%29.80 "HgN/A
12:00 PM73 °FPartly sunny.6 mph94%29.80 "HgN/A
Weather by CustomWeather, © 2016

See weather overviewHow to use our weather pages